Regional Weather Roundup
Issued by NWS

Home | Current Version | Previous Version | Text Only | Print | Product List | Glossary On
Versions: 1 2 3 4 5 6 7 8 9 10 11 12 13 14 15 16 17 18 19 20 21 22 23 24 25 26 27 28 29 30 31 32 33 34 35 36 37 38 39 40 41 42 43 44 45 46 47 48 49 50
000
ASUS43 KTOP 171408
RWRKS

WEATHER ROUNDUP FOR KANSAS
NATIONAL WEATHER SERVICE GOODLAND KS
800 AM CST SUN DEC 17 2017

NOTE:  "FAIR" INDICATES FEW OR NO CLOUDS BELOW 12,000 FEET WITH NO
SIGNIFICANT WEATHER AND/OR OBSTRUCTIONS TO VISIBILITY.

KSZ001>006-013>018-027>032-041>047-171500-
NORTHWEST KANSAS

CITY           SKY/WX    TMP DP  RH WIND       PRES   REMARKS
GOODLAND       CLOUDY    33  31  92 N9        30.01R
HAYS           CLOUDY    33  29  85 N13       29.98R WCI  24
HILL CITY      CLOUDY    31  29  92 N16       30.01R FOG     WCI  20
RUSSELL        CLOUDY    32  29  88 NW12      29.96S WCI  23
$$

KSZ061>065-074>080-084>089-171500-
SOUTHWEST KANSAS

CITY           SKY/WX    TMP DP  RH WIND       PRES   REMARKS
DODGE CITY     CLOUDY    24  21  88 NW10      29.99R WCI  14
ELKHART        CLOUDY    34  31  88 N20       29.99R WCI  22
GARDEN CITY    CLOUDY    31  28  89 N15       29.99R WCI  20
GREAT BEND     CLEAR     32  30  92 W8        29.98R
LIBERAL        CLOUDY    29  27  92 N17       29.99R WCI  17
PRATT          MOCLDY    33  32  96 SW8       29.99R
$$

KSZ066>073-081>083-090>101-171500-
SOUTHEAST KANSAS

CITY           SKY/WX    TMP DP  RH WIND       PRES   REMARKS
CHANUTE        CLOUDY    43  43 100 S8        30.05R FOG
COFFEYVILLE    CLOUDY    44  43  96 SW7       30.05S FOG
HUTCHINSON     CLEAR     37  37 100 S6        30.00R FOG
MEDICINE LODGE   N/A     41  38  89 S3        30.01R
NEWTON         CLOUDY    41  39  93 SW14      30.02R
PARSONS        CLOUDY    44  43  96 S8        30.06R FOG
WICHITA INTL   CLOUDY    44  42  93 S10       30.02R
WICHITA JABRA  CLOUDY    42  42 100 S9        30.01R
WICHITA MCCONL CLOUDY    42  41  95 SW8       30.02R
WINFIELD       CLOUDY    44  43  96 S7        30.04R
$$

KSZ007>012-019>026-033>040-048>060-102>105-171500-
NORTHEAST KANSAS

CITY           SKY/WX    TMP DP  RH WIND       PRES   REMARKS
CONCORDIA      CLOUDY    37  30  75 W5        29.98R
EMPORIA        CLOUDY    42  41  96 S8        30.02R
LAWRENCE       CLOUDY    43  43 100 S7        30.02R FOG
MANHATTAN      CLOUDY    45  42  89 SW8       30.00R
MARYSVILLE     CLOUDY    37  36  93 S6        29.97R
OLATHE IND     LGT RAIN  42  42 100 S9        30.03R FOG
OLATHE EXE     CLOUDY    41  41 100 S10       30.02R FOG
SALINA         CLOUDY    44  42  93 S7        29.99R
TOPEKA BILLARD LGT RAIN  44  44 100 S8        30.02R FOG
TOPEKA FORBES  LGT RAIN  44  43  96 S6        30.00R FOG
$$




USA.gov is the U.S. government's official web portal to all federal, state and local government web resources and services.